Cosmos 405 Rocket - Orbit

View from above orbital plane
View from above orbital plane
View from above satellite
View from above satellite

Ground track
Ground track

The orbit data is extracted from the following two-line orbital elements,

1 05118U 71028B   13168.48712880  .00000714  00000-0  45989-4 0  3074
2 05118 081.2360 023.0180 0046138 091.7782 268.8727 15.06117318283698
Epoch (UTC): 17 June 2013 11:41:27
Eccentricity: 0.0046138
inclination: 81.2360°
perigee height: 516 km
apogee height: 580 km
right ascension of ascending node: 23.0180°
argument of perigee: 91.7782°
revolutions per day: 15.06117318
mean anomaly at epoch: 268.8727°
orbit number at epoch: 28369

The dashed part of the orbit path shows where the satellite is in the earth's shadow,  

Developed and maintained by Chris Peat, Heavens-Above GmbH. Please read the updated FAQ before sending e-mail. Imprint. DLR